Time,TemperatureF,DewpointF,PressureIn,WindDirection,WindDirectionDegrees,WindSpeedMPH,WindSpeedGustMPH,Humidity,HourlyPrecipIn,Conditions,Clouds,dailyrainin,SolarRadiationWatts/m^2,SoftwareType,DateUTC
2013-02-10 00:00:00,42.7,40.3,30.11,West,274,0.0,0.0,91,0.00,,,0.01,0.00,VWS V14.01,2013-02-10 08:00:00,
2013-02-10 00:03:00,42.5,39.8,30.12,West,274,0.0,0.0,90,0.00,,,0.00,0.00,VWS V14.01,2013-02-10 08:03:00,
2013-02-10 00:08:00,42.3,39.6,30.12,West,274,0.0,0.0,90,0.00,,,0.00,0.00,VWS V14.01,2013-02-10 08:08:00,
2013-02-10 00:10:00,42.2,39.8,30.12,West,274,0.0,0.0,91,0.00,,,0.00,0.00,VWS V14.01,2013-02-10 08:10:00,
2013-02-10 00:13:00,42.2,39.8,30.12,West,274,0.0,0.0,91,0.00,,,0.00,0.00,VWS V14.01,2013-02-10 08:13:00,
2013-02-10 00:18:00,42.0,39.6,30.12,West,274,0.0,0.0,91,0.00,,,0.00,0.00,VWS V14.01,2013-02-10 08:18:00,
2013-02-10 00:20:00,41.9,39.5,30.12,West,274,0.0,0.0,91,0.00,,,0.00,0.00,VWS V14.01,2013-02-10 08:20:00,
2013-02-10 00:23:00,41.8,39.4,30.12,West,274,0.0,0.0,91,0.00,,,0.00,0.00,VWS V14.01,2013-02-10 08:23:00,
2013-02-10 00:28:00,41.7,39.3,30.11,West,274,0.0,0.0,91,0.00,,,0.00,0.00,VWS V14.01,2013-02-10 08:28:00,
2013-02-10 00:30:00,41.6,39.2,30.11,West,274,0.0,0.0,91,0.00,,,0.00,0.00,VWS V14.01,2013-02-10 08:30:00,
2013-02-10 00:33:00,41.6,39.2,30.12,West,274,0.0,0.0,91,0.00,,,0.00,0.00,VWS V14.01,2013-02-10 08:33:00,
2013-02-10 00:38:00,41.5,39.1,30.12,West,274,0.0,0.0,91,0.00,,,0.00,0.00,VWS V14.01,2013-02-10 08:38:00,
2013-02-10 00:40:00,41.4,39.0,30.11,West,274,0.0,0.0,91,0.00,,,0.00,0.00,VWS V14.01,2013-02-10 08:40:00,
2013-02-10 00:43:00,41.3,38.9,30.11,West,274,0.0,1.0,91,0.00,,,0.00,0.00,VWS V14.01,2013-02-10 08:43:00,
2013-02-10 00:48:00,41.1,38.4,30.12,West,274,0.0,1.0,90,0.00,,,0.00,0.00,VWS V14.01,2013-02-10 08:48:00,
2013-02-10 00:50:00,41.0,38.3,30.12,West,274,0.0,1.0,90,0.00,,,0.00,0.00,VWS V14.01,2013-02-10 08:50:00,
2013-02-10 00:53:00,40.9,38.2,30.12,West,274,0.0,0.0,90,0.00,,,0.00,0.00,VWS V14.01,2013-02-10 08:53:00,
2013-02-10 00:58:00,40.7,38.0,30.11,West,274,0.0,0.0,90,0.00,,,0.00,0.00,VWS V14.01,2013-02-10 08:58:00,
2013-02-10 01:00:00,40.6,37.9,30.12,West,274,0.0,0.0,90,0.00,,,0.00,0.00,VWS V14.01,2013-02-10 09:00:00,
2013-02-10 01:03:00,40.5,37.8,30.12,West,274,0.0,0.0,90,0.00,,,0.00,0.00,VWS V14.01,2013-02-10 09:03:00,
2013-02-10 01:08:00,40.4,37.7,30.12,West,274,1.0,1.0,90,0.00,,,0.00,0.00,VWS V14.01,2013-02-10 09:08:00,
2013-02-10 01:10:00,40.4,37.7,30.12,West,274,0.0,1.0,90,0.00,,,0.00,0.00,VWS V14.01,2013-02-10 09:10:00,
2013-02-10 01:13:00,40.3,37.6,30.12,West,274,0.0,0.0,90,0.00,,,0.00,0.00,VWS V14.01,2013-02-10 09:13:00,
2013-02-10 01:18:00,40.1,37.4,30.12,West,274,0.0,0.0,90,0.00,,,0.00,0.00,VWS V14.01,2013-02-10 09:18:00,
2013-02-10 01:20:00,40.1,37.4,30.12,West,274,0.0,0.0,90,0.00,,,0.00,0.00,VWS V14.01,2013-02-10 09:20:00,
2013-02-10 01:23:00,40.0,37.3,30.12,West,274,0.0,0.0,90,0.00,,,0.00,0.00,VWS V14.01,2013-02-10 09:23:00,
2013-02-10 01:28:00,40.0,37.0,30.12,West,274,0.0,0.0,89,0.00,,,0.00,0.00,VWS V14.01,2013-02-10 09:28:00,
2013-02-10 01:30:00,39.9,36.9,30.12,West,274,0.0,0.0,89,0.00,,,0.00,0.00,VWS V14.01,2013-02-10 09:30:00,
2013-02-10 01:33:00,39.8,36.8,30.12,West,274,0.0,0.0,89,0.00,,,0.00,0.00,VWS V14.01,2013-02-10 09:33:00,
2013-02-10 01:38:00,39.5,36.5,30.12,West,274,0.0,0.0,89,0.00,,,0.00,0.00,VWS V14.01,2013-02-10 09:38:00,
2013-02-10 01:40:00,39.5,36.5,30.12,West,274,0.0,0.0,89,0.00,,,0.00,0.00,VWS V14.01,2013-02-10 09:40:00,
2013-02-10 01:43:00,39.3,36.3,30.12,West,274,0.0,0.0,89,0.00,,,0.00,0.00,VWS V14.01,2013-02-10 09:43:00,
2013-02-10 01:48:00,39.3,36.3,30.12,West,274,0.0,0.0,89,0.00,,,0.00,0.00,VWS V14.01,2013-02-10 09:48:00,
2013-02-10 01:50:00,39.3,36.3,30.12,West,274,0.0,0.0,89,0.00,,,0.00,0.00,VWS V14.01,2013-02-10 09:50:00,
2013-02-10 01:53:00,39.3,36.3,30.12,West,274,0.0,1.0,89,0.00,,,0.00,0.00,VWS V14.01,2013-02-10 09:53:00,
2013-02-10 01:58:00,39.2,36.2,30.12,West,274,0.0,1.0,89,0.00,,,0.00,0.00,VWS V14.01,2013-02-10 09:58:00,
2013-02-10 02:00:00,39.1,36.1,30.12,West,274,0.0,1.0,89,0.00,,,0.00,0.00,VWS V14.01,2013-02-10 10:00:00,
2013-02-10 02:03:00,39.1,36.1,30.12,West,274,0.0,0.0,89,0.00,,,0.00,0.00,VWS V14.01,2013-02-10 10:03:00,
2013-02-10 02:08:00,38.9,35.9,30.12,West,274,0.0,0.0,89,0.00,,,0.00,0.00,VWS V14.01,2013-02-10 10:08:00,
2013-02-10 02:10:00,38.9,35.9,30.12,West,274,0.0,0.0,89,0.00,,,0.00,0.00,VWS V14.01,2013-02-10 10:10:00,
2013-02-10 02:13:00,38.8,35.8,30.12,West,274,0.0,0.0,89,0.00,,,0.00,0.00,VWS V14.01,2013-02-10 10:13:00,
2013-02-10 02:18:00,38.7,35.7,30.12,West,274,0.0,0.0,89,0.00,,,0.00,0.00,VWS V14.01,2013-02-10 10:18:00,
2013-02-10 02:20:00,38.7,35.7,30.12,West,274,0.0,0.0,89,0.00,,,0.00,0.00,VWS V14.01,2013-02-10 10:20:00,
2013-02-10 02:23:00,38.7,35.7,30.12,West,274,0.0,0.0,89,0.00,,,0.00,0.00,VWS V14.01,2013-02-10 10:23:00,
2013-02-10 02:28:00,38.7,35.7,30.11,West,274,0.0,0.0,89,0.00,,,0.00,0.00,VWS V14.01,2013-02-10 10:28:00,
2013-02-10 02:30:00,38.7,35.7,30.12,West,274,0.0,0.0,89,0.00,,,0.00,0.00,VWS V14.01,2013-02-10 10:30:00,
2013-02-10 02:33:00,38.6,35.6,30.11,West,274,0.0,0.0,89,0.00,,,0.00,0.00,VWS V14.01,2013-02-10 10:33:00,
2013-02-10 02:38:00,38.8,36.1,30.11,West,274,0.0,0.0,90,0.00,,,0.00,0.00,VWS V14.01,2013-02-10 10:38:00,
2013-02-10 02:40:00,38.8,36.1,30.11,West,274,0.0,0.0,90,0.00,,,0.00,0.00,VWS V14.01,2013-02-10 10:40:00,
2013-02-10 02:43:00,39.0,36.3,30.11,West,274,0.0,0.0,90,0.00,,,0.00,0.00,VWS V14.01,2013-02-10 10:43:00,
2013-02-10 02:48:00,39.1,36.1,30.11,West,274,0.0,0.0,89,0.00,,,0.00,0.00,VWS V14.01,2013-02-10 10:48:00,
2013-02-10 02:50:00,39.1,36.1,30.11,West,274,0.0,0.0,89,0.00,,,0.00,0.00,VWS V14.01,2013-02-10 10:50:00,
2013-02-10 02:53:00,39.1,36.1,30.11,West,274,0.0,0.0,89,0.00,,,0.00,0.00,VWS V14.01,2013-02-10 10:53:00,
2013-02-10 02:58:00,38.9,35.9,30.11,West,274,0.0,0.0,89,0.00,,,0.00,0.00,VWS V14.01,2013-02-10 10:58:00,
2013-02-10 03:00:00,38.9,35.7,30.11,West,274,0.0,0.0,88,0.00,,,0.00,0.00,VWS V14.01,2013-02-10 11:00:00,
2013-02-10 03:05:00,38.8,35.6,30.11,West,274,0.0,0.0,88,0.00,,,0.00,0.00,VWS V14.01,2013-02-10 11:05:00,
2013-02-10 03:10:00,38.7,35.5,30.11,West,274,0.0,0.0,88,0.00,,,0.00,0.00,VWS V14.01,2013-02-10 11:10:00,
2013-02-10 03:15:00,38.8,35.6,30.10,West,274,0.0,0.0,88,0.00,,,0.00,0.00,VWS V14.01,2013-02-10 11:15:00,
2013-02-10 03:20:00,38.8,35.6,30.10,West,274,0.0,0.0,88,0.00,,,0.00,0.00,VWS V14.01,2013-02-10 11:20:00,
2013-02-10 03:25:00,38.8,35.6,30.10,West,274,0.0,0.0,88,0.00,,,0.00,0.00,VWS V14.01,2013-02-10 11:25:00,
2013-02-10 03:30:00,38.7,35.5,30.10,West,274,0.0,0.0,88,0.00,,,0.00,0.00,VWS V14.01,2013-02-10 11:30:00,
2013-02-10 03:35:00,38.6,35.4,30.10,West,274,0.0,0.0,88,0.00,,,0.00,0.00,VWS V14.01,2013-02-10 11:35:00,
2013-02-10 03:40:00,38.6,35.4,30.10,West,274,0.0,0.0,88,0.00,,,0.00,0.00,VWS V14.01,2013-02-10 11:40:00,
2013-02-10 03:45:00,38.4,34.9,30.10,West,274,0.0,0.0,87,0.00,,,0.00,0.00,VWS V14.01,2013-02-10 11:45:00,
2013-02-10 03:50:00,38.3,34.8,30.10,West,274,0.0,0.0,87,0.00,,,0.00,0.00,VWS V14.01,2013-02-10 11:50:00,
2013-02-10 03:55:00,38.3,35.1,30.10,West,274,0.0,0.0,88,0.00,,,0.00,0.00,VWS V14.01,2013-02-10 11:55:00,
2013-02-10 04:00:00,38.3,35.1,30.10,West,274,0.0,0.0,88,0.00,,,0.00,0.00,VWS V14.01,2013-02-10 12:00:00,
2013-02-10 04:05:00,38.2,35.0,30.10,West,274,0.0,0.0,88,0.00,,,0.00,0.00,VWS V14.01,2013-02-10 12:05:00,
2013-02-10 04:10:00,38.2,35.0,30.10,West,274,0.0,0.0,88,0.00,,,0.00,0.00,VWS V14.01,2013-02-10 12:10:00,
2013-02-10 04:15:00,38.2,35.0,30.10,West,274,0.0,0.0,88,0.00,,,0.00,0.00,VWS V14.01,2013-02-10 12:15:00,
2013-02-10 04:20:00,38.1,34.9,30.10,West,274,0.0,0.0,88,0.00,,,0.00,0.00,VWS V14.01,2013-02-10 12:20:00,
2013-02-10 04:25:00,38.0,34.8,30.10,West,274,0.0,0.0,88,0.00,,,0.00,0.00,VWS V14.01,2013-02-10 12:25:00,
2013-02-10 04:30:00,38.1,35.2,30.10,West,274,0.0,0.0,89,0.00,,,0.00,0.00,VWS V14.01,2013-02-10 12:30:00,
2013-02-10 04:35:00,38.1,34.9,30.11,West,274,0.0,0.0,88,0.00,,,0.00,0.00,VWS V14.01,2013-02-10 12:35:00,
2013-02-10 04:40:00,38.1,35.2,30.11,West,274,0.0,0.0,89,0.00,,,0.00,0.00,VWS V14.01,2013-02-10 12:40:00,
2013-02-10 04:45:00,38.1,35.2,30.11,West,274,0.0,0.0,89,0.00,,,0.00,0.00,VWS V14.01,2013-02-10 12:45:00,
2013-02-10 04:50:00,38.0,35.0,30.11,West,274,0.0,0.0,89,0.00,,,0.00,0.00,VWS V14.01,2013-02-10 12:50:00,
2013-02-10 04:55:00,38.0,35.0,30.11,West,274,0.0,0.0,89,0.00,,,0.00,0.00,VWS V14.01,2013-02-10 12:55:00,
2013-02-10 05:00:00,37.9,35.0,30.11,West,274,0.0,0.0,89,0.00,,,0.00,0.00,VWS V14.01,2013-02-10 13:00:00,
2013-02-10 05:05:00,37.9,35.0,30.11,West,274,0.0,0.0,89,0.00,,,0.00,0.00,VWS V14.01,2013-02-10 13:05:00,
2013-02-10 05:10:00,37.9,35.0,30.11,West,274,0.0,0.0,89,0.00,,,0.00,0.00,VWS V14.01,2013-02-10 13:10:00,
2013-02-10 05:15:00,37.9,35.0,30.11,West,274,0.0,0.0,89,0.00,,,0.00,0.00,VWS V14.01,2013-02-10 13:15:00,
2013-02-10 05:20:00,38.0,35.0,30.11,West,274,0.0,0.0,89,0.00,,,0.00,0.00,VWS V14.01,2013-02-10 13:20:00,
2013-02-10 05:25:00,38.1,35.2,30.11,West,274,0.0,0.0,89,0.00,,,0.00,0.00,VWS V14.01,2013-02-10 13:25:00,
2013-02-10 05:30:00,38.4,35.7,30.11,West,274,0.0,0.0,90,0.00,,,0.00,0.00,VWS V14.01,2013-02-10 13:30:00,
2013-02-10 05:35:00,38.5,35.5,30.11,West,274,0.0,0.0,89,0.00,,,0.00,0.00,VWS V14.01,2013-02-10 13:35:00,
2013-02-10 05:40:00,38.5,35.5,30.11,West,274,0.0,0.0,89,0.00,,,0.00,0.00,VWS V14.01,2013-02-10 13:40:00,
2013-02-10 05:45:00,38.5,35.5,30.11,West,274,0.0,0.0,89,0.00,,,0.00,0.00,VWS V14.01,2013-02-10 13:45:00,
2013-02-10 05:50:00,38.4,35.5,30.12,West,274,0.0,0.0,89,0.00,,,0.00,0.00,VWS V14.01,2013-02-10 13:50:00,
2013-02-10 05:55:00,38.4,35.7,30.12,West,274,0.0,0.0,90,0.00,,,0.00,0.00,VWS V14.01,2013-02-10 13:55:00,
2013-02-10 06:00:00,38.6,35.9,30.12,West,274,0.0,0.0,90,0.00,,,0.00,0.00,VWS V14.01,2013-02-10 14:00:00,
2013-02-10 06:05:00,38.6,35.9,30.12,West,274,0.0,0.0,90,0.00,,,0.00,0.00,VWS V14.01,2013-02-10 14:05:00,
2013-02-10 06:10:00,38.5,35.5,30.12,West,274,0.0,0.0,89,0.00,,,0.00,0.00,VWS V14.01,2013-02-10 14:10:00,
2013-02-10 06:15:00,38.5,35.8,30.12,West,274,0.0,0.0,90,0.00,,,0.00,0.00,VWS V14.01,2013-02-10 14:15:00,
2013-02-10 06:20:00,38.6,35.9,30.12,West,274,0.0,0.0,90,0.00,,,0.00,0.00,VWS V14.01,2013-02-10 14:20:00,
2013-02-10 06:25:00,38.7,36.0,30.12,West,274,1.0,1.0,90,0.00,,,0.00,0.00,VWS V14.01,2013-02-10 14:25:00,
2013-02-10 06:30:00,38.6,35.6,30.12,West,274,0.0,0.0,89,0.00,,,0.00,0.00,VWS V14.01,2013-02-10 14:30:00,
2013-02-10 06:35:00,38.4,35.5,30.12,West,274,0.0,0.0,89,0.00,,,0.00,0.00,VWS V14.01,2013-02-10 14:35:00,
2013-02-10 06:40:00,38.2,35.2,30.12,West,274,0.0,0.0,89,0.00,,,0.00,0.00,VWS V14.01,2013-02-10 14:40:00,
2013-02-10 06:46:00,38.2,35.5,30.12,West,274,0.0,0.0,90,0.00,,,0.00,0.00,VWS V14.01,2013-02-10 14:46:00,
2013-02-10 06:50:00,38.1,35.2,30.12,West,274,0.0,0.0,89,0.00,,,0.00,0.00,VWS V14.01,2013-02-10 14:50:00,
2013-02-10 06:51:00,38.1,35.2,30.12,West,274,0.0,0.0,89,0.00,,,0.00,0.00,VWS V14.01,2013-02-10 14:51:00,
2013-02-10 06:56:00,38.0,35.0,30.12,West,274,0.0,0.0,89,0.00,,,0.00,0.00,VWS V14.01,2013-02-10 14:56:00,
2013-02-10 07:00:00,37.8,34.8,30.12,West,274,0.0,0.0,89,0.00,,,0.00,0.00,VWS V14.01,2013-02-10 15:00:00,
2013-02-10 07:01:00,37.8,34.9,30.12,West,274,0.0,0.0,89,0.00,,,0.00,5.00,VWS V14.01,2013-02-10 15:01:00,
2013-02-10 07:06:00,37.9,35.0,30.12,West,274,1.0,1.0,89,0.00,,,0.00,7.00,VWS V14.01,2013-02-10 15:06:00,
2013-02-10 07:11:00,37.9,35.0,30.12,West,274,0.0,0.0,89,0.00,,,0.00,11.00,VWS V14.01,2013-02-10 15:11:00,
2013-02-10 07:16:00,37.9,35.0,30.12,West,274,0.0,1.0,89,0.00,,,0.00,12.00,VWS V14.01,2013-02-10 15:16:00,
2013-02-10 07:21:00,38.0,35.0,30.12,West,274,0.0,0.0,89,0.00,,,0.00,16.00,VWS V14.01,2013-02-10 15:21:00,
2013-02-10 07:26:00,38.1,35.2,30.12,West,274,0.0,1.0,89,0.00,,,0.00,18.00,VWS V14.01,2013-02-10 15:26:00,
2013-02-10 07:31:00,38.3,35.3,30.12,West,274,0.0,0.0,89,0.00,,,0.00,21.00,VWS V14.01,2013-02-10 15:31:00,
2013-02-10 07:36:00,38.3,35.3,30.12,West,274,0.0,0.0,89,0.00,,,0.00,23.00,VWS V14.01,2013-02-10 15:36:00,
2013-02-10 07:41:00,38.5,35.5,30.12,West,274,0.0,0.0,89,0.00,,,0.00,44.00,VWS V14.01,2013-02-10 15:41:00,
2013-02-10 07:46:00,38.7,35.7,30.12,West,274,0.0,0.0,89,0.00,,,0.00,67.00,VWS V14.01,2013-02-10 15:46:00,
2013-02-10 07:51:00,39.2,36.2,30.12,West,274,0.0,0.0,89,0.00,,,0.00,88.00,VWS V14.01,2013-02-10 15:51:00,
2013-02-10 07:56:00,39.6,36.6,30.12,West,274,0.0,0.0,89,0.00,,,0.00,104.00,VWS V14.01,2013-02-10 15:56:00,
2013-02-10 08:01:00,40.1,37.4,30.12,West,274,0.0,0.0,90,0.00,,,0.00,121.00,VWS V14.01,2013-02-10 16:01:00,
2013-02-10 08:06:00,41.2,38.5,30.13,West,274,0.0,0.0,90,0.00,,,0.00,137.00,VWS V14.01,2013-02-10 16:06:00,
2013-02-10 08:11:00,42.4,39.4,30.12,West,274,0.0,0.0,89,0.00,,,0.00,153.00,VWS V14.01,2013-02-10 16:11:00,
2013-02-10 08:16:00,43.4,40.1,30.12,West,274,0.0,0.0,88,0.00,,,0.00,171.00,VWS V14.01,2013-02-10 16:16:00,
2013-02-10 08:21:00,43.8,40.2,30.13,West,274,0.0,0.0,87,0.00,,,0.00,190.00,VWS V14.01,2013-02-10 16:21:00,
2013-02-10 08:26:00,44.1,40.5,30.12,West,274,0.0,0.0,87,0.00,,,0.00,207.00,VWS V14.01,2013-02-10 16:26:00,
2013-02-10 08:31:00,44.8,41.2,30.13,West,274,0.0,0.0,87,0.00,,,0.00,225.00,VWS V14.01,2013-02-10 16:31:00,
2013-02-10 08:36:00,45.3,41.1,30.12,West,274,0.0,1.0,85,0.00,,,0.00,243.00,VWS V14.01,2013-02-10 16:36:00,
2013-02-10 08:41:00,46.1,41.8,30.12,West,274,0.0,0.0,85,0.00,,,0.00,257.00,VWS V14.01,2013-02-10 16:41:00,
2013-02-10 08:46:00,46.9,41.7,30.13,West,275,0.0,1.0,82,0.00,,,0.00,271.00,VWS V14.01,2013-02-10 16:46:00,
2013-02-10 08:51:00,47.2,41.7,30.13,West,274,0.0,0.0,81,0.00,,,0.00,290.00,VWS V14.01,2013-02-10 16:51:00,
2013-02-10 08:56:00,47.5,41.7,30.13,West,275,0.0,0.0,80,0.00,,,0.00,316.00,VWS V14.01,2013-02-10 16:56:00,
2013-02-10 09:01:00,47.9,42.0,30.13,West,275,0.0,0.0,80,0.00,,,0.00,332.00,VWS V14.01,2013-02-10 17:01:00,
2013-02-10 09:06:00,48.2,42.0,30.13,West,274,0.0,1.0,79,0.00,,,0.00,348.00,VWS V14.01,2013-02-10 17:06:00,
2013-02-10 09:11:00,48.6,42.1,30.12,West,275,0.0,1.0,78,0.00,,,0.00,364.00,VWS V14.01,2013-02-10 17:11:00,
2013-02-10 09:17:00,48.8,41.9,30.12,West,274,0.0,1.0,77,0.00,,,0.00,380.00,VWS V14.01,2013-02-10 17:17:00,
2013-02-10 09:22:00,49.1,41.9,30.12,West,275,0.0,1.0,76,0.00,,,0.00,396.00,VWS V14.01,2013-02-10 17:22:00,
2013-02-10 09:27:00,49.3,41.7,30.12,West,275,0.0,2.0,75,0.00,,,0.00,360.00,VWS V14.01,2013-02-10 17:27:00,
2013-02-10 09:32:00,49.6,42.0,30.12,WNW,295,1.0,2.0,75,0.00,,,0.00,417.00,VWS V14.01,2013-02-10 17:32:00,
2013-02-10 09:37:00,49.8,42.2,30.12,WNW,297,0.0,2.0,75,0.00,,,0.00,432.00,VWS V14.01,2013-02-10 17:37:00,
2013-02-10 09:42:00,50.3,42.3,30.12,WNW,297,4.0,4.0,74,0.00,,,0.00,452.00,VWS V14.01,2013-02-10 17:42:00,
2013-02-10 09:47:00,50.6,42.3,30.13,NW,306,3.0,5.0,73,0.00,,,0.00,469.00,VWS V14.01,2013-02-10 17:47:00,
2013-02-10 09:52:00,50.7,42.7,30.13,WSW,244,2.0,4.0,74,0.00,,,0.00,506.00,VWS V14.01,2013-02-10 17:52:00,
2013-02-10 09:57:00,50.9,43.3,30.13,WSW,249,2.0,7.0,75,0.00,,,0.00,515.00,VWS V14.01,2013-02-10 17:57:00,
2013-02-10 10:02:00,51.0,43.7,30.13,WNW,286,2.0,3.0,76,0.00,,,0.00,492.00,VWS V14.01,2013-02-10 18:02:00,
2013-02-10 10:07:00,51.0,43.0,30.12,West,270,3.0,5.0,74,0.00,,,0.00,552.00,VWS V14.01,2013-02-10 18:07:00,
2013-02-10 10:12:00,51.2,43.2,30.12,West,281,2.0,3.0,74,0.00,,,0.00,499.00,VWS V14.01,2013-02-10 18:12:00,
2013-02-10 10:17:00,51.5,42.8,30.13,West,269,1.0,4.0,72,0.00,,,0.00,526.00,VWS V14.01,2013-02-10 18:17:00,
2013-02-10 10:22:00,51.5,42.4,30.13,NW,316,2.0,4.0,71,0.00,,,0.00,534.00,VWS V14.01,2013-02-10 18:22:00,
2013-02-10 10:27:00,51.5,42.4,30.13,West,281,2.0,5.0,71,0.00,,,0.00,559.00,VWS V14.01,2013-02-10 18:27:00,
2013-02-10 10:32:00,51.7,42.2,30.13,West,274,1.0,2.0,70,0.00,,,0.00,573.00,VWS V14.01,2013-02-10 18:32:00,
2013-02-10 10:37:00,52.1,42.2,30.13,West,270,2.0,4.0,69,0.00,,,0.00,561.00,VWS V14.01,2013-02-10 18:37:00,
2013-02-10 10:40:00,52.2,43.5,30.13,West,271,1.0,4.0,72,0.00,,,0.00,575.00,VWS V14.01,2013-02-10 18:40:00,
2013-02-10 10:42:00,52.5,43.8,30.12,West,271,1.0,1.0,72,0.00,,,0.00,584.00,VWS V14.01,2013-02-10 18:42:00,
2013-02-10 10:49:00,53.3,41.8,30.12,West,274,3.0,3.0,65,0.00,,,0.00,596.00,VWS V14.01,2013-02-10 18:49:00,
2013-02-10 10:50:00,53.3,41.0,30.12,West,278,4.0,6.0,63,0.00,,,0.00,599.00,VWS V14.01,2013-02-10 18:50:00,
2013-02-10 10:54:00,53.4,41.5,30.12,West,279,2.0,5.0,64,0.00,,,0.00,601.00,VWS V14.01,2013-02-10 18:54:00,
2013-02-10 10:59:00,53.3,39.3,30.12,WNW,289,2.0,5.0,59,0.00,,,0.00,612.00,VWS V14.01,2013-02-10 18:59:00,
2013-02-10 11:00:00,53.3,39.8,30.12,WNW,282,5.0,5.0,60,0.00,,,0.00,612.00,VWS V14.01,2013-02-10 19:00:00,
2013-02-10 11:04:00,53.3,38.9,30.12,WSW,255,2.0,4.0,58,0.00,,,0.00,610.00,VWS V14.01,2013-02-10 19:04:00,
2013-02-10 11:09:00,53.4,39.9,30.12,NW,317,2.0,5.0,60,0.00,,,0.00,612.00,VWS V14.01,2013-02-10 19:09:00,
2013-02-10 11:14:00,53.6,40.5,30.12,West,263,3.0,5.0,61,0.00,,,0.00,631.00,VWS V14.01,2013-02-10 19:14:00,
2013-02-10 11:19:00,53.6,40.1,30.11,WNW,287,3.0,5.0,60,0.00,,,0.00,643.00,VWS V14.01,2013-02-10 19:19:00,
2013-02-10 11:24:00,53.8,39.8,30.11,NW,306,5.0,5.0,59,0.00,,,0.00,642.00,VWS V14.01,2013-02-10 19:24:00,
2013-02-10 11:29:00,53.7,39.3,30.11,NW,310,3.0,6.0,58,0.00,,,0.00,643.00,VWS V14.01,2013-02-10 19:29:00,
2013-02-10 11:34:00,53.7,38.8,30.10,WNW,301,2.0,5.0,57,0.00,,,0.00,642.00,VWS V14.01,2013-02-10 19:34:00,
2013-02-10 11:39:00,54.1,41.0,30.10,NW,306,3.0,5.0,61,0.00,,,0.00,661.00,VWS V14.01,2013-02-10 19:39:00,
2013-02-10 11:44:00,53.9,39.5,30.10,WSW,256,4.0,6.0,58,0.00,,,0.00,552.00,VWS V14.01,2013-02-10 19:44:00,
2013-02-10 11:49:00,53.5,40.0,30.09,WNW,298,4.0,6.0,60,0.00,,,0.00,656.00,VWS V14.01,2013-02-10 19:49:00,
2013-02-10 11:54:00,53.6,40.5,30.09,West,276,1.0,5.0,61,0.00,,,0.00,661.00,VWS V14.01,2013-02-10 19:54:00,
2013-02-10 11:59:00,53.8,40.3,30.09,West,266,4.0,6.0,60,0.00,,,0.00,666.00,VWS V14.01,2013-02-10 19:59:00,
2013-02-10 12:04:00,53.6,40.5,30.09,WNW,291,1.0,6.0,61,0.00,,,0.00,647.00,VWS V14.01,2013-02-10 20:04:00,
2013-02-10 12:10:00,53.8,40.3,30.09,WNW,285,3.0,6.0,60,0.00,,,0.00,640.00,VWS V14.01,2013-02-10 20:10:00,
2013-02-10 12:15:00,53.8,39.4,30.08,West,276,4.0,6.0,58,0.00,,,0.00,666.00,VWS V14.01,2013-02-10 20:15:00,
2013-02-10 12:20:00,53.6,40.9,30.08,West,269,2.0,6.0,62,0.00,,,0.00,673.00,VWS V14.01,2013-02-10 20:20:00,
2013-02-10 12:25:00,53.7,41.4,30.08,WNW,303,3.0,6.0,63,0.00,,,0.00,670.00,VWS V14.01,2013-02-10 20:25:00,
2013-02-10 12:30:00,54.1,42.2,30.08,West,273,2.0,6.0,64,0.00,,,0.00,666.00,VWS V14.01,2013-02-10 20:30:00,
2013-02-10 12:35:00,54.3,41.2,30.08,NW,310,1.0,5.0,61,0.00,,,0.00,664.00,VWS V14.01,2013-02-10 20:35:00,
2013-02-10 12:40:00,54.2,41.5,30.07,WNW,294,4.0,6.0,62,0.00,,,0.00,663.00,VWS V14.01,2013-02-10 20:40:00,
2013-02-10 12:45:00,54.4,41.2,30.07,West,270,4.0,6.0,61,0.00,,,0.00,661.00,VWS V14.01,2013-02-10 20:45:00,
2013-02-10 12:50:00,54.5,42.2,30.07,WSW,258,2.0,6.0,63,0.00,,,0.00,661.00,VWS V14.01,2013-02-10 20:50:00,
2013-02-10 12:55:00,54.3,42.0,30.07,WNW,301,2.0,5.0,63,0.00,,,0.00,663.00,VWS V14.01,2013-02-10 20:55:00,
2013-02-10 13:00:00,54.2,41.9,30.07,West,261,5.0,6.0,63,0.00,,,0.00,652.00,VWS V14.01,2013-02-10 21:00:00,
2013-02-10 13:05:00,54.0,42.1,30.06,WNW,289,3.0,7.0,64,0.00,,,0.00,650.00,VWS V14.01,2013-02-10 21:05:00,
2013-02-10 13:10:00,54.0,42.5,30.06,West,274,2.0,7.0,65,0.00,,,0.00,647.00,VWS V14.01,2013-02-10 21:10:00,
2013-02-10 13:15:00,54.2,42.3,30.06,WSW,252,0.0,5.0,64,0.00,,,0.00,640.00,VWS V14.01,2013-02-10 21:15:00,
2013-02-10 13:20:00,54.4,42.1,30.07,SSE,160,2.0,5.0,63,0.00,,,0.00,633.00,VWS V14.01,2013-02-10 21:20:00,
2013-02-10 13:25:00,54.0,42.5,30.06,NW,304,3.0,5.0,65,0.00,,,0.00,629.00,VWS V14.01,2013-02-10 21:25:00,
2013-02-10 13:30:00,54.2,41.9,30.06,NW,322,4.0,4.0,63,0.00,,,0.00,626.00,VWS V14.01,2013-02-10 21:30:00,
2013-02-10 13:35:00,54.0,40.4,30.07,West,280,3.0,7.0,60,0.00,,,0.00,617.00,VWS V14.01,2013-02-10 21:35:00,
2013-02-10 13:40:00,54.0,41.7,30.07,West,275,2.0,2.0,63,0.00,,,0.00,610.00,VWS V14.01,2013-02-10 21:40:00,
2013-02-10 13:45:00,54.4,42.1,30.06,WSW,239,3.0,4.0,63,0.00,,,0.00,603.00,VWS V14.01,2013-02-10 21:45:00,
2013-02-10 13:50:00,54.6,41.0,30.06,NW,312,4.0,5.0,60,0.00,,,0.00,596.00,VWS V14.01,2013-02-10 21:50:00,
2013-02-10 13:55:00,54.4,42.5,30.06,WNW,285,5.0,6.0,64,0.00,,,0.00,592.00,VWS V14.01,2013-02-10 21:55:00,
2013-02-10 14:00:00,54.2,42.7,30.06,NW,306,5.0,5.0,65,0.00,,,0.00,582.00,VWS V14.01,2013-02-10 22:00:00,
2013-02-10 14:05:00,53.6,43.3,30.06,NW,308,4.0,8.0,68,0.00,,,0.00,575.00,VWS V14.01,2013-02-10 22:05:00,
2013-02-10 14:10:00,53.5,43.6,30.06,NW,306,1.0,2.0,69,0.00,,,0.00,563.00,VWS V14.01,2013-02-10 22:10:00,
2013-02-10 14:15:00,53.7,43.8,30.06,West,272,4.0,6.0,69,0.00,,,0.00,554.00,VWS V14.01,2013-02-10 22:15:00,
2013-02-10 14:20:00,54.0,44.1,30.06,West,271,4.0,5.0,69,0.00,,,0.00,540.00,VWS V14.01,2013-02-10 22:20:00,
2013-02-10 14:25:00,53.9,44.0,30.06,West,281,3.0,7.0,69,0.00,,,0.00,531.00,VWS V14.01,2013-02-10 22:25:00,
2013-02-10 14:30:00,54.1,44.5,30.06,West,268,5.0,5.0,70,0.00,,,0.00,519.00,VWS V14.01,2013-02-10 22:30:00,
2013-02-10 14:35:00,54.0,44.8,30.05,West,280,3.0,6.0,71,0.00,,,0.00,512.00,VWS V14.01,2013-02-10 22:35:00,
2013-02-10 14:40:00,54.0,44.1,30.05,WSW,247,3.0,5.0,69,0.00,,,0.00,499.00,VWS V14.01,2013-02-10 22:40:00,
2013-02-10 14:46:00,54.1,43.8,30.05,West,270,3.0,7.0,68,0.00,,,0.00,489.00,VWS V14.01,2013-02-10 22:46:00,
2013-02-10 14:51:00,53.9,44.0,30.05,WSW,243,5.0,5.0,69,0.00,,,0.00,476.00,VWS V14.01,2013-02-10 22:51:00,
2013-02-10 14:56:00,53.7,43.8,30.05,NW,309,5.0,7.0,69,0.00,,,0.00,462.00,VWS V14.01,2013-02-10 22:56:00,
2013-02-10 15:01:00,53.5,44.3,30.05,WSW,249,2.0,4.0,71,0.00,,,0.00,450.00,VWS V14.01,2013-02-10 23:01:00,
2013-02-10 15:06:00,53.6,44.4,30.05,West,281,2.0,6.0,71,0.00,,,0.00,436.00,VWS V14.01,2013-02-10 23:06:00,
2013-02-10 15:11:00,53.6,44.4,30.05,NNW,333,3.0,5.0,71,0.00,,,0.00,424.00,VWS V14.01,2013-02-10 23:11:00,
2013-02-10 15:16:00,53.7,44.9,30.05,NW,304,3.0,8.0,72,0.00,,,0.00,411.00,VWS V14.01,2013-02-10 23:16:00,
2013-02-10 15:21:00,53.8,44.3,30.05,NW,307,5.0,5.0,70,0.00,,,0.00,399.00,VWS V14.01,2013-02-10 23:21:00,
2013-02-10 15:26:00,54.0,44.8,30.05,West,269,6.0,6.0,71,0.00,,,0.00,385.00,VWS V14.01,2013-02-10 23:26:00,
2013-02-10 15:31:00,54.0,45.5,30.05,West,267,4.0,5.0,73,0.00,,,0.00,369.00,VWS V14.01,2013-02-10 23:31:00,
2013-02-10 15:36:00,53.7,45.3,30.05,West,281,3.0,6.0,73,0.00,,,0.00,355.00,VWS V14.01,2013-02-10 23:36:00,
2013-02-10 15:41:00,53.6,45.5,30.05,West,277,3.0,5.0,74,0.00,,,0.00,339.00,VWS V14.01,2013-02-10 23:41:00,
2013-02-10 15:46:00,53.6,45.2,30.05,NW,312,2.0,5.0,73,0.00,,,0.00,325.00,VWS V14.01,2013-02-10 23:46:00,
2013-02-10 15:51:00,53.4,45.0,30.05,WNW,295,3.0,6.0,73,0.00,,,0.00,309.00,VWS V14.01,2013-02-10 23:51:00,
2013-02-10 15:56:00,53.1,45.0,30.05,West,269,2.0,8.0,74,0.00,,,0.00,292.00,VWS V14.01,2013-02-10 23:56:00,
2013-02-10 16:01:00,53.1,45.8,30.05,West,263,3.0,5.0,76,0.00,,,0.00,278.00,VWS V14.01,2013-02-11 00:01:00,
2013-02-10 16:06:00,53.1,45.4,30.05,West,268,1.0,5.0,75,0.00,,,0.00,262.00,VWS V14.01,2013-02-11 00:06:00,
2013-02-10 16:11:00,53.1,45.4,30.05,WNW,283,1.0,1.0,75,0.00,,,0.00,244.00,VWS V14.01,2013-02-11 00:11:00,
2013-02-10 16:16:00,53.3,45.6,30.05,West,266,4.0,5.0,75,0.00,,,0.00,230.00,VWS V14.01,2013-02-11 00:16:00,
2013-02-10 16:21:00,53.2,45.8,30.05,West,278,1.0,3.0,76,0.00,,,0.00,213.00,VWS V14.01,2013-02-11 00:21:00,
2013-02-10 16:26:00,52.9,45.5,30.05,West,270,4.0,7.0,76,0.00,,,0.00,197.00,VWS V14.01,2013-02-11 00:26:00,
2013-02-10 16:31:00,52.7,45.7,30.05,West,270,5.0,6.0,77,0.00,,,0.00,181.00,VWS V14.01,2013-02-11 00:31:00,
2013-02-10 16:36:00,52.6,46.0,30.05,West,271,1.0,6.0,78,0.00,,,0.00,163.00,VWS V14.01,2013-02-11 00:36:00,
2013-02-10 16:41:00,52.7,46.0,30.05,West,279,1.0,4.0,78,0.00,,,0.00,144.00,VWS V14.01,2013-02-11 00:41:00,
2013-02-10 16:46:00,52.6,46.0,30.05,West,280,1.0,4.0,78,0.00,,,0.00,123.00,VWS V14.01,2013-02-11 00:46:00,
2013-02-10 16:51:00,52.7,46.0,30.05,WSW,249,0.0,5.0,78,0.00,,,0.00,105.00,VWS V14.01,2013-02-11 00:51:00,
2013-02-10 16:56:00,52.7,46.0,30.05,WSW,251,2.0,5.0,78,0.00,,,0.00,86.00,VWS V14.01,2013-02-11 00:56:00,
2013-02-10 17:01:00,52.5,45.8,30.05,West,278,0.0,5.0,78,0.00,,,0.00,70.00,VWS V14.01,2013-02-11 01:01:00,
2013-02-10 17:06:00,52.4,46.1,30.05,West,280,2.0,5.0,79,0.00,,,0.00,54.00,VWS V14.01,2013-02-11 01:06:00,
2013-02-10 17:11:00,52.2,45.9,30.05,West,279,2.0,2.0,79,0.00,,,0.00,44.00,VWS V14.01,2013-02-11 01:11:00,
2013-02-10 17:16:00,52.1,45.8,30.05,SSW,200,1.0,2.0,79,0.00,,,0.00,25.00,VWS V14.01,2013-02-11 01:16:00,
2013-02-10 17:21:00,52.0,46.0,30.05,SW,219,0.0,0.0,80,0.00,,,0.00,19.00,VWS V14.01,2013-02-11 01:21:00,
2013-02-10 17:26:00,51.8,46.2,30.05,West,259,0.0,3.0,81,0.00,,,0.00,16.00,VWS V14.01,2013-02-11 01:26:00,
2013-02-10 17:31:00,51.6,46.3,30.05,West,259,0.0,1.0,82,0.00,,,0.00,12.00,VWS V14.01,2013-02-11 01:31:00,
2013-02-10 17:36:00,51.4,46.1,30.04,West,259,0.0,1.0,82,0.00,,,0.00,9.00,VWS V14.01,2013-02-11 01:36:00,
2013-02-10 17:41:00,51.2,46.2,30.05,West,259,0.0,1.0,83,0.00,,,0.00,5.00,VWS V14.01,2013-02-11 01:41:00,
2013-02-10 17:46:00,51.1,46.1,30.05,WSW,254,0.0,2.0,83,0.00,,,0.00,0.00,VWS V14.01,2013-02-11 01:46:00,
2013-02-10 17:51:00,50.8,46.2,30.05,West,262,0.0,3.0,84,0.00,,,0.00,0.00,VWS V14.01,2013-02-11 01:51:00,
2013-02-10 17:56:00,50.6,46.0,30.04,WSW,251,0.0,4.0,84,0.00,,,0.00,0.00,VWS V14.01,2013-02-11 01:56:00,
2013-02-10 18:01:00,50.4,46.1,30.04,WSW,247,0.0,2.0,85,0.00,,,0.00,0.00,VWS V14.01,2013-02-11 02:01:00,
2013-02-10 18:06:00,50.2,45.9,30.05,WSW,247,0.0,2.0,85,0.00,,,0.00,0.00,VWS V14.01,2013-02-11 02:06:00,
2013-02-10 18:11:00,50.0,45.7,30.05,WSW,247,0.0,0.0,85,0.00,,,0.00,0.00,VWS V14.01,2013-02-11 02:11:00,
2013-02-10 18:16:00,49.8,45.8,30.05,WSW,247,0.0,1.0,86,0.00,,,0.00,0.00,VWS V14.01,2013-02-11 02:16:00,
2013-02-10 18:21:00,49.7,45.7,30.06,WSW,247,0.0,0.0,86,0.00,,,0.00,0.00,VWS V14.01,2013-02-11 02:21:00,
2013-02-10 18:26:00,49.5,45.5,30.06,WSW,247,0.0,0.0,86,0.00,,,0.00,0.00,VWS V14.01,2013-02-11 02:26:00,
2013-02-10 18:31:00,49.5,45.8,30.06,WSW,247,0.0,0.0,87,0.00,,,0.00,0.00,VWS V14.01,2013-02-11 02:31:00,
2013-02-10 18:36:00,49.4,45.7,30.06,WSW,247,0.0,0.0,87,0.00,,,0.00,0.00,VWS V14.01,2013-02-11 02:36:00,
2013-02-10 18:41:00,49.2,45.5,30.06,WSW,247,0.0,0.0,87,0.00,,,0.00,0.00,VWS V14.01,2013-02-11 02:41:00,
2013-02-10 18:46:00,49.1,45.4,30.06,WSW,247,0.0,0.0,87,0.00,,,0.00,0.00,VWS V14.01,2013-02-11 02:46:00,
2013-02-10 18:51:00,48.9,45.2,30.06,WSW,247,0.0,0.0,87,0.00,,,0.00,0.00,VWS V14.01,2013-02-11 02:51:00,
2013-02-10 18:56:00,48.8,45.4,30.06,WSW,247,0.0,0.0,88,0.00,,,0.00,0.00,VWS V14.01,2013-02-11 02:56:00,
2013-02-10 19:01:00,48.6,45.2,30.07,WSW,247,0.0,0.0,88,0.00,,,0.00,0.00,VWS V14.01,2013-02-11 03:01:00,
2013-02-10 19:06:00,48.5,45.1,30.07,WSW,247,0.0,0.0,88,0.00,,,0.00,0.00,VWS V14.01,2013-02-11 03:06:00,
2013-02-10 19:11:00,48.5,45.4,30.07,WSW,247,0.0,0.0,89,0.00,,,0.00,0.00,VWS V14.01,2013-02-11 03:11:00,
2013-02-10 19:16:00,48.3,45.2,30.07,WSW,247,0.0,0.0,89,0.00,,,0.00,0.00,VWS V14.01,2013-02-11 03:16:00,
2013-02-10 19:21:00,48.2,45.1,30.07,WSW,247,0.0,0.0,89,0.00,,,0.00,0.00,VWS V14.01,2013-02-11 03:21:00,
2013-02-10 19:26:00,48.1,45.0,30.07,WSW,247,0.0,0.0,89,0.00,,,0.00,0.00,VWS V14.01,2013-02-11 03:26:00,
2013-02-10 19:31:00,47.9,44.8,30.07,WSW,247,0.0,0.0,89,0.00,,,0.00,0.00,VWS V14.01,2013-02-11 03:31:00,
2013-02-10 19:36:00,47.7,44.6,30.07,WSW,247,0.0,0.0,89,0.00,,,0.00,0.00,VWS V14.01,2013-02-11 03:36:00,
2013-02-10 19:41:00,47.6,44.5,30.07,WSW,247,0.0,0.0,89,0.00,,,0.00,0.00,VWS V14.01,2013-02-11 03:41:00,
2013-02-10 19:47:00,47.3,44.2,30.07,WSW,247,0.0,0.0,89,0.00,,,0.00,0.00,VWS V14.01,2013-02-11 03:47:00,
2013-02-10 19:52:00,47.3,44.2,30.07,WSW,247,0.0,0.0,89,0.00,,,0.00,0.00,VWS V14.01,2013-02-11 03:52:00,
2013-02-10 19:57:00,47.2,44.4,30.07,WSW,247,0.0,0.0,90,0.00,,,0.00,0.00,VWS V14.01,2013-02-11 03:57:00,
2013-02-10 20:02:00,47.2,44.4,30.07,WSW,247,0.0,1.0,90,0.00,,,0.00,0.00,VWS V14.01,2013-02-11 04:02:00,
2013-02-10 20:07:00,47.0,44.2,30.07,WSW,247,0.0,1.0,90,0.00,,,0.00,0.00,VWS V14.01,2013-02-11 04:07:00,
2013-02-10 20:12:00,46.9,44.1,30.07,WSW,247,0.0,0.0,90,0.00,,,0.00,0.00,VWS V14.01,2013-02-11 04:12:00,
2013-02-10 20:17:00,46.8,44.0,30.07,WSW,247,0.0,0.0,90,0.00,,,0.00,0.00,VWS V14.01,2013-02-11 04:17:00,
2013-02-10 20:22:00,46.8,44.0,30.07,WSW,247,0.0,0.0,90,0.00,,,0.00,0.00,VWS V14.01,2013-02-11 04:22:00,
2013-02-10 20:27:00,46.8,44.0,30.07,WSW,247,0.0,0.0,90,0.00,,,0.00,0.00,VWS V14.01,2013-02-11 04:27:00,
2013-02-10 20:32:00,46.7,44.2,30.07,WSW,247,0.0,0.0,91,0.00,,,0.00,0.00,VWS V14.01,2013-02-11 04:32:00,
2013-02-10 20:37:00,46.5,43.7,30.07,WSW,247,0.0,0.0,90,0.00,,,0.00,0.00,VWS V14.01,2013-02-11 04:37:00,
2013-02-10 20:42:00,46.3,43.5,30.08,WSW,247,0.0,0.0,90,0.00,,,0.00,0.00,VWS V14.01,2013-02-11 04:42:00,
2013-02-10 20:47:00,46.3,43.8,30.07,WSW,247,0.0,0.0,91,0.00,,,0.00,0.00,VWS V14.01,2013-02-11 04:47:00,
2013-02-10 20:52:00,46.3,43.8,30.07,WSW,247,0.0,0.0,91,0.00,,,0.00,0.00,VWS V14.01,2013-02-11 04:52:00,
2013-02-10 20:57:00,46.2,43.7,30.07,WSW,247,0.0,0.0,91,0.00,,,0.00,0.00,VWS V14.01,2013-02-11 04:57:00,
2013-02-10 21:00:00,46.1,43.6,30.07,WSW,247,0.0,0.0,91,0.00,,,0.00,0.00,VWS V14.01,2013-02-11 05:00:00,
2013-02-10 21:01:00,46.2,43.7,30.07,WSW,247,0.0,0.0,91,0.00,,,0.00,0.00,VWS V14.01,2013-02-11 05:01:00,
2013-02-10 21:02:00,46.2,43.7,30.07,WSW,247,0.0,0.0,91,0.00,,,0.00,0.00,VWS V14.01,2013-02-11 05:02:00,
2013-02-10 21:06:00,46.1,43.6,30.07,WSW,247,0.0,0.0,91,0.00,,,0.00,0.00,VWS V14.01,2013-02-11 05:06:00,
2013-02-10 21:11:00,46.0,43.5,30.08,WSW,247,0.0,0.0,91,0.00,,,0.00,0.00,VWS V14.01,2013-02-11 05:11:00,
2013-02-10 21:16:00,46.0,43.5,30.07,WSW,247,0.0,1.0,91,0.00,,,0.00,0.00,VWS V14.01,2013-02-11 05:16:00,
2013-02-10 21:21:00,45.9,43.4,30.07,WSW,247,0.0,0.0,91,0.00,,,0.00,0.00,VWS V14.01,2013-02-11 05:21:00,
2013-02-10 21:26:00,45.7,43.2,30.08,WSW,247,0.0,1.0,91,0.00,,,0.00,0.00,VWS V14.01,2013-02-11 05:26:00,
2013-02-10 21:31:00,45.5,43.0,30.08,WSW,247,0.0,0.0,91,0.00,,,0.00,0.00,VWS V14.01,2013-02-11 05:31:00,
2013-02-10 21:36:00,45.5,43.0,30.08,WSW,247,0.0,0.0,91,0.00,,,0.00,0.00,VWS V14.01,2013-02-11 05:36:00,
2013-02-10 21:41:00,45.3,42.8,30.08,WSW,247,0.0,0.0,91,0.00,,,0.00,0.00,VWS V14.01,2013-02-11 05:41:00,
2013-02-10 21:46:00,45.2,43.0,30.08,WSW,247,0.0,0.0,92,0.00,,,0.00,0.00,VWS V14.01,2013-02-11 05:46:00,
2013-02-10 21:51:00,45.1,42.9,30.08,WSW,247,0.0,0.0,92,0.00,,,0.00,0.00,VWS V14.01,2013-02-11 05:51:00,
2013-02-10 21:56:00,45.0,42.8,30.08,WSW,247,0.0,0.0,92,0.00,,,0.00,0.00,VWS V14.01,2013-02-11 05:56:00,
2013-02-10 22:01:00,44.9,42.7,30.08,WSW,247,0.0,0.0,92,0.00,,,0.00,0.00,VWS V14.01,2013-02-11 06:01:00,
2013-02-10 22:06:00,44.9,42.7,30.08,WSW,247,0.0,0.0,92,0.00,,,0.00,0.00,VWS V14.01,2013-02-11 06:06:00,
2013-02-10 22:11:00,44.9,42.7,30.08,WSW,247,0.0,0.0,92,0.00,,,0.00,0.00,VWS V14.01,2013-02-11 06:11:00,
2013-02-10 22:16:00,44.8,42.6,30.08,WSW,247,0.0,0.0,92,0.00,,,0.00,0.00,VWS V14.01,2013-02-11 06:16:00,
2013-02-10 22:21:00,44.8,42.6,30.08,WSW,247,0.0,0.0,92,0.00,,,0.00,0.00,VWS V14.01,2013-02-11 06:21:00,
2013-02-10 22:26:00,44.7,42.5,30.08,WSW,247,0.0,0.0,92,0.00,,,0.00,0.00,VWS V14.01,2013-02-11 06:26:00,
2013-02-10 22:31:00,44.7,42.8,30.08,WSW,247,0.0,0.0,93,0.00,,,0.00,0.00,VWS V14.01,2013-02-11 06:31:00,
2013-02-10 22:36:00,44.6,42.4,30.08,WSW,247,0.0,0.0,92,0.00,,,0.00,0.00,VWS V14.01,2013-02-11 06:36:00,
2013-02-10 22:41:00,44.6,42.4,30.07,WSW,247,0.0,0.0,92,0.00,,,0.00,0.00,VWS V14.01,2013-02-11 06:41:00,
2013-02-10 22:46:00,44.6,42.7,30.08,WSW,247,0.0,0.0,93,0.00,,,0.00,0.00,VWS V14.01,2013-02-11 06:46:00,
2013-02-10 22:51:00,44.5,42.3,30.08,WSW,247,0.0,0.0,92,0.00,,,0.00,0.00,VWS V14.01,2013-02-11 06:51:00,
2013-02-10 22:56:00,44.4,42.5,30.07,WSW,247,0.0,0.0,93,0.00,,,0.00,0.00,VWS V14.01,2013-02-11 06:56:00,
2013-02-10 23:01:00,44.4,42.5,30.08,WSW,247,0.0,0.0,93,0.00,,,0.00,0.00,VWS V14.01,2013-02-11 07:01:00,
2013-02-10 23:06:00,44.4,42.5,30.08,WSW,247,0.0,0.0,93,0.00,,,0.00,0.00,VWS V14.01,2013-02-11 07:06:00,
2013-02-10 23:12:00,44.2,42.3,30.08,WSW,247,0.0,0.0,93,0.00,,,0.00,0.00,VWS V14.01,2013-02-11 07:12:00,
2013-02-10 23:17:00,44.1,42.2,30.08,WSW,247,0.0,0.0,93,0.00,,,0.00,0.00,VWS V14.01,2013-02-11 07:17:00,
2013-02-10 23:22:00,44.0,42.1,30.08,WSW,247,0.0,0.0,93,0.00,,,0.00,0.00,VWS V14.01,2013-02-11 07:22:00,
2013-02-10 23:27:00,43.8,41.9,30.08,WSW,247,0.0,0.0,93,0.00,,,0.00,0.00,VWS V14.01,2013-02-11 07:27:00,
2013-02-10 23:32:00,43.8,41.9,30.08,WSW,247,0.0,0.0,93,0.00,,,0.00,0.00,VWS V14.01,2013-02-11 07:32:00,
2013-02-10 23:37:00,43.7,41.8,30.08,WSW,247,0.0,0.0,93,0.00,,,0.00,0.00,VWS V14.01,2013-02-11 07:37:00,
2013-02-10 23:42:00,43.6,41.7,30.08,WSW,247,0.0,0.0,93,0.00,,,0.00,0.00,VWS V14.01,2013-02-11 07:42:00,
2013-02-10 23:47:00,43.6,41.7,30.08,WSW,247,0.0,0.0,93,0.00,,,0.00,0.00,VWS V14.01,2013-02-11 07:47:00,
2013-02-10 23:52:00,43.6,41.7,30.08,WSW,247,0.0,0.0,93,0.00,,,0.00,0.00,VWS V14.01,2013-02-11 07:52:00,
2013-02-10 23:57:00,43.6,41.7,30.08,WSW,247,0.0,0.0,93,0.00,,,0.00,0.00,VWS V14.01,2013-02-11 07:57:00,